Volver al catálogo

STARLINK-1573

ActivoComunicacionesVLEO
NORAD 46061·PAYLOAD·🇺🇸 United States

Lanzado Aug 7, 2020 desde Cape Canaveral Space Force Station

Loading…

Próximos Pases (próximas 24 horas)

TLE

ActualizadoSource: CelesTrak SupGP

Época: Sep 14, 2026, 20:43 UTC

1 46061C 20055AL  26257.86368056 -.00024456  00000+0 -78643-3 0  2573
2 46061  53.1597 313.5192 0001143  82.8309 121.3244 15.31714468    10

Sigue STARLINK-1573 en tiempo real con AllMySat

Download on the App Store